Radiation Dose measured at exhaust stack monitor of Miscellaneous Solid Waste Incinerator Building/Incinerator raregas monitor
Date,Time,Incinerator Gas Monitor(cps),Wind Direction,Wind Velocity(m/s)
2021/05/18,00:00,1.3,north-northeast,5.2
2021/05/18,00:10,1.5,north-northeast,5.3
2021/05/18,00:20,1.5,northeast,5.3
2021/05/18,00:30,1.5,north-northeast,5.8
2021/05/18,00:40,1.5,north-northeast,5.1
2021/05/18,00:50,1.5,north-northeast,4.3
2021/05/18,01:00,1.4,north-northeast,5.0
2021/05/18,01:10,1.5,north-northeast,5.3
2021/05/18,01:20,1.4,north,3.9
2021/05/18,01:30,1.5,north,3.1
2021/05/18,01:40,1.6,north,2.6
2021/05/18,01:50,1.5,north,3.2
2021/05/18,02:00,1.5,north,2.3
2021/05/18,02:10,1.5,north,3.3
2021/05/18,02:20,1.5,north,3.4
2021/05/18,02:30,1.6,north,3.3
2021/05/18,02:40,1.4,north,4.1
2021/05/18,02:50,1.5,north,4.5
2021/05/18,03:00,1.4,north,4.7
2021/05/18,03:10,1.4,north,4.5
2021/05/18,03:20,1.4,north,4.4
2021/05/18,03:30,1.5,north-northwest,5.0
2021/05/18,03:40,1.5,north,4.6
2021/05/18,03:50,1.5,north-northwest,4.5
2021/05/18,04:00,1.5,north,6.0
2021/05/18,04:10,1.4,north,6.2
2021/05/18,04:20,1.4,north,6.9
2021/05/18,04:30,1.4,north,6.8
2021/05/18,04:40,1.4,north,7.1
2021/05/18,04:50,1.4,north,6.1
2021/05/18,05:00,1.5,north-northwest,6.0
2021/05/18,05:10,1.4,north,6.6
2021/05/18,05:20,1.5,north,6.2
2021/05/18,05:30,1.4,north,5.5
2021/05/18,05:40,1.5,north,4.8
2021/05/18,05:50,1.4,north-northwest,4.5
2021/05/18,06:00,1.6,north,4.7
2021/05/18,06:10,1.5,north,5.3
2021/05/18,06:20,1.5,north,5.8
2021/05/18,06:30,1.5,north,6.3
2021/05/18,06:40,1.5,north,7.0
2021/05/18,06:50,1.5,north,7.0
2021/05/18,07:00,1.4,north,6.7
2021/05/18,07:10,1.5,north,6.2
2021/05/18,07:20,1.5,north,5.5
2021/05/18,07:30,1.5,north,6.6
2021/05/18,07:40,1.5,north,6.0
2021/05/18,07:50,1.5,north-northeast,6.7
2021/05/18,08:00,1.5,north-northeast,6.9
2021/05/18,08:10,1.5,north-northeast,6.9
2021/05/18,08:20,1.5,north-northeast,6.8
2021/05/18,08:30,1.4,north,5.4
2021/05/18,08:40,1.5,north-northeast,5.9
2021/05/18,08:50,1.4,north-northeast,7.3
2021/05/18,09:00,1.4,north,7.3
2021/05/18,09:10,1.5,north-northeast,6.5
2021/05/18,09:20,1.5,north-northeast,6.2
2021/05/18,09:30,1.5,north-northeast,7.9
2021/05/18,09:40,1.5,north-northeast,7.3
2021/05/18,09:50,1.5,north,7.9
2021/05/18,10:00,1.4,north-northeast,6.6
2021/05/18,10:10,1.4,north-northeast,6.0
2021/05/18,10:20,1.5,north-northeast,6.3
2021/05/18,10:30,1.4,north-northeast,5.3
2021/05/18,10:40,1.5,north-northeast,4.8
2021/05/18,10:50,1.5,north-northeast,4.2
2021/05/18,11:00,1.4,north-northeast,4.9
2021/05/18,11:10,1.5,north-northeast,5.3
2021/05/18,11:20,1.5,north-northeast,5.0
2021/05/18,11:30,1.5,north-northeast,4.0
2021/05/18,11:40,1.4,north-northeast,4.3
2021/05/18,11:50,1.4,north-northeast,4.8
2021/05/18,12:00,1.4,north-northeast,6.1
2021/05/18,12:10,1.5,north-northeast,5.8
2021/05/18,12:20,1.4,northeast,4.0
2021/05/18,12:30,1.5,northeast,4.6
2021/05/18,12:40,1.5,east-northeast,3.4
2021/05/18,12:50,1.5,east-northeast,3.0
2021/05/18,13:00,1.4,east,3.5
2021/05/18,13:10,1.5,east-southeast,3.2
2021/05/18,13:20,1.3,east-southeast,3.7
2021/05/18,13:30,1.6,east-southeast,3.2
2021/05/18,13:40,1.5,east-southeast,3.4
2021/05/18,13:50,1.5,east-southeast,2.8
2021/05/18,14:00,1.5,east-southeast,3.1
2021/05/18,14:10,1.4,east-southeast,2.8
2021/05/18,14:20,1.5,southeast,2.5
2021/05/18,14:30,1.5,south-southeast,2.6
2021/05/18,14:40,1.6,south-southeast,2.6
2021/05/18,14:50,1.5,south-southeast,2.9
2021/05/18,15:00,1.6,south-southeast,2.5
2021/05/18,15:10,1.4,southeast,3.8
2021/05/18,15:20,1.5,south-southeast,3.6
2021/05/18,15:30,1.4,south-southeast,2.8
2021/05/18,15:40,1.5,south-southeast,3.4
2021/05/18,15:50,1.6,south-southeast,3.8
2021/05/18,16:00,1.5,south-southeast,4.0
2021/05/18,16:10,1.4,south-southeast,3.6
2021/05/18,16:20,1.4,southeast,4.3
2021/05/18,16:30,1.5,south-southeast,4.3
2021/05/18,16:40,1.5,south-southeast,3.8
2021/05/18,16:50,1.5,south-southeast,4.1
2021/05/18,17:00,1.4,south-southeast,4.0
2021/05/18,17:10,1.5,south-southeast,3.9
2021/05/18,17:20,1.4,south-southeast,3.8
2021/05/18,17:30,1.4,south-southeast,3.8
2021/05/18,17:40,1.5,south-southeast,3.5
2021/05/18,17:50,1.4,south-southeast,3.5
2021/05/18,18:00,1.4,south,2.9
2021/05/18,18:10,1.5,south-southeast,3.1
2021/05/18,18:20,1.5,south-southeast,3.2
2021/05/18,18:30,1.5,south-southeast,2.9
2021/05/18,18:40,1.5,south-southeast,2.2
2021/05/18,18:50,1.5,south,2.5
2021/05/18,19:00,1.4,south-southeast,3.4
2021/05/18,19:10,1.5,south-southeast,3.5
2021/05/18,19:20,1.5,south-southeast,3.4
2021/05/18,19:30,1.5,south-southeast,3.9
2021/05/18,19:40,1.4,south-southeast,3.0
2021/05/18,19:50,1.5,southeast,3.5
2021/05/18,20:00,1.4,east-southeast,2.5
2021/05/18,20:10,1.6,south-southeast,1.2
2021/05/18,20:20,1.5,southeast,2.0
2021/05/18,20:30,1.5,southeast,1.9
2021/05/18,20:40,1.4,south-southeast,2.3
2021/05/18,20:50,1.5,southeast,2.5
2021/05/18,21:00,1.5,southeast,2.0
2021/05/18,21:10,1.5,east-southeast,2.5
2021/05/18,21:20,1.4,east-northeast,3.3
2021/05/18,21:30,1.6,east-northeast,2.3
2021/05/18,21:40,1.5,east-northeast,2.9
2021/05/18,21:50,1.5,east-northeast,1.9
2021/05/18,22:00,1.4,east-northeast,2.0
2021/05/18,22:10,1.4,east-northeast,1.9
2021/05/18,22:20,1.4,east,1.2
2021/05/18,22:30,1.4,northeast,0.6
2021/05/18,22:40,1.4,north-northeast,0.8
2021/05/18,22:50,1.5,north-northwest,0.9
2021/05/18,23:00,1.4,northwest,1.5
2021/05/18,23:10,1.4,north-northwest,1.5
2021/05/18,23:20,1.4,north-northwest,1.5
2021/05/18,23:30,1.4,north,1.5
2021/05/18,23:40,1.4,north,1.7
2021/05/18,23:50,1.5,north-northwest,2.3
